Tracking 27107 objects as of 20-Mar-2023
HD Live streaming from Space Station
objects crossing your sky now

STARLINK-4157

Track STARLINK-4157 now!
10-day predictions
STARLINK-4157 is classified as:


NORAD ID: 53035
Int'l Code: 2022-076BB
Perigee: 545.4 km
Apogee: 548.4 km
Inclination: 53.2 °
Period: 95.4 minutes
Semi major axis: 6917 km
RCS: Unknown
Launch date: July 7, 2022
Source: United States (US)
Launch site: AIR FORCE EASTERN TEST RANGE (AFETR)
Your satellite tracking list
Your tracking list is empty




NASA's NSSDC Master Catalog

Two Line Element Set (TLE):
1 53035U 22076BB  23079.20781630 -.00001224  00000-0 -58773-4 0  9996
2 53035  53.2138 267.0399 0002170  78.5125 281.6110 15.08837927 39713
Source of the keplerian elements: AFSPC